User: anonymous   Login
Location: USNO
(38.9242°N, 77.0663°W)
Time: 10:09:02
(UTC-05:00)
Language:

Envisat - Orbit

View from above orbital plane
View from above orbital plane
View from above satellite
View from above satellite

Ground track
Ground track

The orbit data is extracted from the following two-line orbital elements,

1 27386U 02009A   18053.33918567  .00000004  00000-0  15081-4 0  9999
2 27386  98.1994  92.7248 0001277  88.3283 271.8050 14.37915990837020
Epoch (UTC): 22 February 2018 08:08:25
Eccentricity: 0.0001277
inclination: 98.1994°
perigee height: 764 km
apogee height: 766 km
right ascension of ascending node: 92.7248°
argument of perigee: 88.3283°
revolutions per day: 14.37915990
mean anomaly at epoch: 271.8050°
orbit number at epoch: 83702

The dashed part of the orbit path shows where the satellite is in the earth's shadow,  

DLR